Regional Weather Roundup
Issued by NWS

Home | Current Version | Previous Version | Text Only | Print | Product List | Glossary On
Versions: 1 2 3 4 5 6 7 8 9 10 11 12 13 14 15 16 17 18 19 20 21 22 23 24 25 26 27 28 29 30 31 32 33 34 35 36 37 38 39 40 41 42 43 44 45 46 47 48 49 50
000
ASUS43 KTOP 230008
RWRKS

WEATHER ROUNDUP FOR KANSAS
NATIONAL WEATHER SERVICE GOODLAND KS
700 PM CDT THU JUN 22 2017

NOTE:  "FAIR" INDICATES FEW OR NO CLOUDS BELOW 12,000 FEET WITH NO
SIGNIFICANT WEATHER AND/OR OBSTRUCTIONS TO VISIBILITY.

KSZ001>006-013>018-027>032-041>047-230100-
NORTHWEST KANSAS

CITY           SKY/WX    TMP DP  RH WIND       PRES   REMARKS
GOODLAND       CLOUDY    83  57  41 N14       29.85R
6HR MIN TEMP:  83; 6HR MAX TEMP:  93;

HAYS           SUNNY     99  64  31 E8        29.62R HX 101
HILL CITY      SUNNY     95  62  33 NE20      29.67R HX  96
6HR MIN TEMP:  95; 6HR MAX TEMP: 104;

RUSSELL        SUNNY     99  60  27 S12       29.59R HX  99
6HR MIN TEMP:  92; 6HR MAX TEMP: 101;

$$

KSZ061>065-074>080-084>089-230100-
SOUTHWEST KANSAS

CITY           SKY/WX    TMP DP  RH WIND       PRES   REMARKS
DODGE CITY     CLOUDY    91  63  39 SW10      29.68R
6HR MIN TEMP:  88; 6HR MAX TEMP:  95;

ELKHART          N/A     93  57  29 SE15        N/A
GARDEN CITY    TSTM      87  57  35 NW8G26    29.76R
6HR MIN TEMP:  85; 6HR MAX TEMP:  96;

GREAT BEND     SUNNY     97  64  33 S15       29.62R HX  99
LIBERAL        SUNNY     95  61  32 S15       29.68R HX  95
PRATT          SUNNY     91  59  34 S14       29.64R
6HR MIN TEMP:  88; 6HR MAX TEMP:  94;

$$

KSZ066>073-081>083-090>101-230100-
SOUTHEAST KANSAS

CITY           SKY/WX    TMP DP  RH WIND       PRES   REMARKS
CHANUTE        MOSUNNY   85  72  65 S12       29.66S
6HR MIN TEMP:  82; 6HR MAX TEMP:  89;

COFFEYVILLE    SUNNY     85  72  65 S6        29.65F
6HR MIN TEMP:  83; 6HR MAX TEMP:  89;

HUTCHINSON     SUNNY     94  62  34 S14       29.61S
6HR MIN TEMP:  90; 6HR MAX TEMP:  97;

MEDICINE LODGE   N/A     94  59  31 S12       29.60S
NEWTON         SUNNY     88  69  53 SE16G25   29.64R
PARSONS        MOSUNNY   86  72  62 S7        29.67F
6HR MIN TEMP:  82; 6HR MAX TEMP:  88;

WICHITA INTL   MOSUNNY   88  69  53 SE16      29.61F
6HR MIN TEMP:  87; 6HR MAX TEMP:  93;

WICHITA JABRA  SUNNY     86  68  54 SE16      29.62F
6HR MIN TEMP:  85; 6HR MAX TEMP:  89;

WICHITA MCCONL SUNNY     88  67  49 S13       29.63S
WINFIELD       SUNNY     87  70  56 SE13      29.64F
6HR MIN TEMP:  86; 6HR MAX TEMP:  89;

$$

KSZ007>012-019>026-033>040-048>060-102>105-230100-
NORTHEAST KANSAS

CITY           SKY/WX    TMP DP  RH WIND       PRES   REMARKS
CONCORDIA      SUNNY     95  64  35 S12       29.59S HX  97
6HR MIN TEMP:  92; 6HR MAX TEMP:  97;

EMPORIA        SUNNY     85  72  65 S16       29.63F
6HR MIN TEMP:  84; 6HR MAX TEMP:  87;

LAWRENCE       SUNNY     86  73  65 SE13      29.62F
6HR MIN TEMP:  86; 6HR MAX TEMP:  89; 6HR PCP: TRACE;

MANHATTAN      SUNNY     92  70  48 S10       29.62R HX  97
6HR MIN TEMP:  91; 6HR MAX TEMP:  95;

MARYSVILLE     SUNNY     88  70  55 S10       29.61F
OLATHE IND     MOSUNNY   85  72  65 S14       29.66F
6HR MIN TEMP:  83; 6HR MAX TEMP:  86;

OLATHE EXE     MOSUNNY   83  73  72 S10       29.66F
6HR MIN TEMP:  81; 6HR MAX TEMP:  84;

SALINA         SUNNY     97  62  31 S12G21    29.59S HX  98
6HR MIN TEMP:  94; 6HR MAX TEMP: 100; 6HR PCP: TRACE;

TOPEKA BILLARD SUNNY     87  73  62 S12       29.62S
6HR MIN TEMP:  86; 6HR MAX TEMP:  89;

TOPEKA FORBES  SUNNY     88  71  57 S14G21    29.62F
6HR MIN TEMP:  87; 6HR MAX TEMP:  90;

$$




USA.gov is the U.S. government's official web portal to all federal, state and local government web resources and services.